Theta_e
310 310 310 310 310 310 310 310 310 310 310 311 311 311 311 311 311 311 311 311 312 312 312 313 313 313 312 312 312 312 311 311 312 311 312 313 314 315 315 315 316 316 316 316 317 318 315 315 315 315 316 316 316 317 317 318 320 321 324 322 321 327 327 326 330 321 318 324 320 316 316 317 319 318 316 317 317 316 316 316 317 317 317 317 317 317 317 317
310 310 310 310 310 310 310 310 310 310 311 311 312 311 312 312 312 312 312 312 313 313 313 314 314 314 314 314 314 313 313 313 313 312 313 315 315 315 315 315 315 315 315 316 317 318 316 315 316 316 316 316 316 317 318 318 319 323 326 321 323 329 323 319 322 317 316 319 317 316 316 315 317 316 315 317 316 315 316 315 315 316 317 317 317 317 317 317
310 310 310 310 310 310 310 310 310 310 311 311 312 312 312 312 313 313 313 314 314 314 314 314 315 315 315 315 314 314 314 314 315 316 316 317 316 314 314 315 316 315 315 315 316 317 316 316 316 316 316 316 317 318 319 320 320 321 321 323 330 325 317 315 316 316 317 318 315 315 315 313 315 315 314 315 315 315 315 314 314 315 317 317 317 317 317 317
309 309 310 310 309 310 310 310 310 310 311 311 311 312 312 313 313 313 313 314 314 314 315 315 315 315 315 315 315 314 314 314 316 318 317 316 315 315 313 314 316 316 315 315 315 315 316 316 317 316 315 316 316 318 319 319 321 320 319 327 327 317 316 319 316 317 317 316 314 314 314 313 315 315 314 315 315 316 315 314 315 315 316 316 316 316 316 317
309 309 309 310 310 310 310 310 310 310 310 311 311 311 312 312 312 313 313 313 313 314 314 314 315 315 315 315 315 314 314 316 317 317 316 316 316 315 315 314 315 316 315 315 315 315 316 317 317 316 316 316 315 317 319 319 319 319 320 322 319 314 317 320 317 318 317 316 315 314 314 315 316 315 314 315 315 317 316 315 316 316 316 316 316 316 316 316
309 309 310 310 310 310 310 310 310 310 310 311 311 311 312 312 312 312 312 313 313 313 313 313 314 314 314 315 315 314 314 316 317 315 316 317 316 315 315 314 315 316 316 316 315 314 316 316 317 316 315 315 316 318 318 318 318 320 320 317 317 317 317 318 318 318 317 316 315 314 316 315 314 314 315 314 315 317 317 316 316 316 316 315 316 316 316 316
310 310 310 310 310 310 310 310 310 310 311 310 311 311 311 312 312 312 313 313 313 313 313 313 314 314 314 314 314 314 313 315 316 315 317 318 316 315 315 314 314 315 316 317 315 314 315 315 316 316 315 315 316 316 317 317 317 320 321 317 317 318 316 318 319 318 318 317 316 316 315 313 313 315 314 313 315 317 317 316 316 316 316 315 315 315 315 315
310 310 310 310 310 310 310 311 310 310 310 310 311 311 311 311 311 312 312 313 313 313 313 313 314 314 314 314 314 313 313 315 315 315 317 317 316 315 315 315 315 315 315 316 316 315 314 315 316 316 315 316 315 316 316 316 316 318 320 317 316 317 317 318 318 317 317 316 316 315 312 313 314 314 313 314 316 317 316 316 316 315 315 315 315 315 315 315
312 311 311 311 311 311 311 311 311 311 311 311 311 311 311 311 311 311 312 312 312 312 313 313 313 314 314 314 313 313 314 315 316 316 316 316 315 315 315 315 315 315 315 316 315 313 314 315 316 316 316 316 315 315 315 316 317 317 317 316 315 315 316 316 315 314 315 315 315 313 313 314 314 313 313 315 316 316 316 316 316 315 315 315 315 315 315 315
313 312 312 312 312 312 312 313 313 313 313 313 313 312 312 312 312 312 312 312 313 312 313 313 314 314 314 315 314 313 315 316 316 315 315 315 315 315 315 315 315 315 314 315 314 313 313 314 315 316 316 315 315 314 314 316 318 315 314 314 313 313 314 313 313 313 313 313 313 314 315 315 313 313 314 316 316 315 316 316 316 315 315 315 315 315 315 315
313 313 313 312 312 312 312 313 313 313 313 313 313 313 314 314 314 314 314 314 314 314 314 314 315 314 314 315 313 313 315 315 315 315 315 315 315 315 315 315 315 315 314 314 314 313 312 313 314 316 316 316 315 314 314 315 315 313 312 313 313 312 313 313 312 312 312 313 313 313 314 313 311 312 314 315 316 315 315 316 317 316 316 316 315 315 314 315
316 316 316 315 315 315 315 315 315 314 313 313 312 312 312 312 313 313 314 314 314 314 313 313 313 313 313 312 313 315 316 315 315 315 315 316 316 315 315 314 315 314 314 313 313 312 311 312 314 315 316 315 314 314 314 314 313 313 313 315 314 312 313 313 312 312 312 313 313 312 313 314 314 314 315 315 316 315 314 316 317 317 317 317 317 316 316 316
319 319 319 319 319 319 320 319 319 319 318 317 316 315 313 312 311 311 311 312 312 312 312 312 312 312 311 311 314 315 316 315 315 316 315 316 315 315 315 314 314 314 314 314 313 312 311 312 313 315 315 314 314 314 313 312 312 313 313 313 314 314 315 313 312 312 311 312 313 312 313 315 315 314 314 316 316 315 314 315 317 318 318 318 318 317 317 317
318 319 320 320 321 321 322 322 323 323 323 323 322 321 320 318 316 315 313 313 312 312 312 312 312 311 309 311 314 314 315 315 315 315 316 316 315 315 315 314 314 315 314 314 314 313 312 312 313 314 314 315 315 313 314 314 315 315 312 313 315 315 316 313 311 311 311 312 312 313 313 313 314 313 314 315 315 314 313 315 317 317 318 318 318 318 318 318
314 315 316 317 317 318 318 319 320 321 322 323 323 323 323 323 322 321 319 318 318 317 316 315 314 312 310 311 313 313 314 314 315 316 316 316 316 315 315 315 314 314 314 314 314 313 312 312 314 314 314 315 314 314 318 319 322 320 313 315 317 314 315 314 310 310 312 313 310 312 315 314 313 314 314 314 314 314 313 314 317 317 317 318 318 318 317 317
311 311 312 312 312 313 313 314 314 315 316 316 317 318 318 319 319 319 319 319 318 318 317 316 314 312 310 311 312 313 314 315 315 315 316 316 316 316 315 315 315 314 314 314 313 313 312 313 314 314 314 313 314 317 319 318 322 322 314 315 317 315 314 314 313 309 309 312 310 312 315 315 314 314 315 315 314 313 312 314 315 316 317 317 317 317 317 317
312 312 312 312 312 312 312 312 312 312 312 312 313 313 313 313 314 314 314 314 314 314 314 314 313 311 312 312 313 313 314 314 314 315 315 315 315 316 316 315 315 315 314 313 313 312 311 312 313 314 314 313 315 318 318 315 317 318 314 315 317 316 313 313 316 311 307 311 313 312 313 313 314 313 313 314 314 312 311 312 314 315 316 316 316 316 317 317
316 316 315 315 315 315 314 314 313 313 313 312 312 312 312 312 312 312 312 312 311 312 312 312 313 313 314 314 313 313 314 314 315 315 315 316 316 315 316 315 314 314 313 312 312 312 312 311 312 315 315 313 314 316 317 316 315 315 315 316 316 315 313 313 315 312 311 313 313 313 312 312 312 312 311 313 314 311 310 311 312 313 314 314 314 315 316 316
317 318 318 319 318 318 317 316 315 314 313 312 312 311 311 312 313 313 314 313 312 313 314 314 314 315 316 314 313 313 314 314 314 315 315 315 315 315 315 314 313 313 311 312 313 311 311 312 313 315 315 313 313 313 314 314 313 313 314 314 314 314 313 312 313 311 311 312 312 312 312 311 311 311 311 311 313 311 310 311 311 311 312 313 313 314 315 315
317 317 318 319 319 320 320 319 317 315 314 313 312 311 311 311 312 314 314 313 313 314 315 315 314 315 315 314 313 313 313 313 313 314 314 315 315 315 314 313 313 312 312 316 317 311 310 315 316 316 315 313 313 313 313 312 312 312 312 313 313 312 311 311 312 311 310 311 312 312 312 311 311 311 311 310 311 311 310 311 311 311 312 312 313 314 314 314
320 318 317 317 317 319 321 321 319 316 315 314 313 312 311 310 311 312 312 312 313 313 313 313 313 313 314 314 314 313 313 313 314 314 315 315 315 315 314 313 313 314 312 313 314 311 311 314 316 316 314 313 313 312 311 311 312 312 313 313 312 312 312 311 312 312 310 310 311 312 312 311 311 311 311 311 311 311 311 311 312 312 312 313 313 313 314 315
323 322 320 318 317 317 319 320 320 319 318 317 315 313 312 310 311 311 309 311 313 313 314 313 312 312 313 314 313 313 313 313 313 314 315 314 315 315 314 314 315 316 313 311 313 313 313 314 314 313 312 312 313 311 311 312 312 313 313 312 313 312 312 311 312 312 310 311 314 315 313 311 311 312 311 311 311 311 312 312 312 313 313 313 313 314 314 314
325 324 323 322 319 318 318 318 319 320 320 320 318 316 314 312 311 310 310 311 313 315 316 315 314 312 314 314 313 312 312 312 313 313 314 314 314 314 312 313 315 316 315 315 315 315 316 317 313 310 310 312 313 312 312 312 312 314 313 313 313 312 312 313 313 314 312 312 315 315 312 310 311 311 311 310 310 311 312 312 313 312 313 313 314 314 314 313
327 326 325 324 323 321 320 319 319 320 321 321 321 319 316 313 311 311 311 311 312 315 315 315 313 312 314 313 312 312 311 311 311 312 313 313 314 313 312 313 314 315 314 314 314 314 316 316 311 309 311 312 313 313 313 313 313 313 314 313 313 313 313 313 313 314 313 312 314 313 311 312 313 312 313 311 310 310 310 311 312 312 313 314 313 313 313 314
326 326 325 324 324 324 323 322 321 320 321 322 322 321 317 314 312 311 310 313 316 315 314 313 312 312 312 311 312 312 311 311 311 311 312 313 314 313 311 311 313 315 314 313 313 313 313 311 310 312 314 313 313 313 314 315 313 312 314 314 313 313 313 313 314 313 313 316 315 313 313 316 317 315 315 315 312 311 310 309 310 310 312 313 312 313 314 315
325 325 325 324 324 324 324 323 322 322 322 323 323 322 318 315 314 313 312 316 322 319 314 312 312 313 311 311 312 311 313 314 312 312 312 312 313 312 311 311 311 313 314 313 312 312 313 311 311 314 316 316 314 313 314 314 313 313 317 319 314 312 313 314 314 313 317 319 315 314 316 316 316 316 317 318 316 314 312 311 310 309 311 311 312 314 315 315
325 325 325 325 324 324 324 323 323 323 322 322 323 322 319 316 314 313 314 321 325 319 314 313 312 312 311 311 311 311 316 316 312 312 312 312 313 312 312 312 310 311 310 311 311 313 314 312 312 313 313 316 315 314 314 313 313 315 317 321 319 316 315 314 313 314 317 317 314 315 316 316 315 314 316 317 316 316 314 313 312 310 310 312 313 315 315 316
324 325 326 325 325 325 324 324 324 323 322 322 323 322 320 318 315 313 320 329 327 318 315 313 311 312 312 311 310 310 312 312 311 313 312 312 313 311 312 312 311 312 309 310 313 312 313 314 315 314 312 314 314 314 316 313 313 317 315 316 319 317 316 315 316 316 315 315 314 314 314 317 318 314 315 315 314 316 314 313 313 311 311 312 313 315 316 316
323 324 326 325 324 324 324 324 324 323 323 322 322 322 319 318 316 314 322 328 324 316 314 313 312 312 311 311 310 310 310 309 310 312 311 312 312 311 312 311 309 312 309 310 313 311 311 313 312 314 315 314 313 314 317 317 315 314 313 314 317 318 318 317 317 317 318 317 316 315 314 317 318 316 317 315 314 317 315 313 312 310 310 311 313 316 316 317
322 322 324 325 324 324 323 324 323 323 323 322 322 322 319 318 316 317 325 325 321 318 313 311 312 311 310 312 311 309 310 310 309 310 311 311 311 310 311 310 308 313 314 311 312 311 309 308 308 311 313 312 313 312 310 313 311 309 313 318 320 320 319 319 320 318 317 317 317 318 316 315 317 318 318 318 317 317 316 315 314 313 311 311 314 316 316 317
322 322 323 324 325 324 323 323 323 323 323 322 323 322 320 321 320 323 328 323 320 321 313 311 313 312 313 314 314 312 311 310 309 310 312 311 311 310 310 310 310 315 318 315 314 312 309 308 310 312 310 309 313 312 307 307 307 308 317 321 319 320 320 320 321 318 316 318 319 319 316 314 317 316 315 317 316 315 315 317 321 321 315 312 315 317 316 317
322 323 323 324 324 324 323 323 323 323 322 322 322 321 321 325 323 324 327 323 324 323 314 313 314 314 316 313 315 316 312 311 309 310 314 313 314 314 313 315 315 316 320 319 318 317 314 314 312 311 310 309 313 315 313 311 309 311 317 317 315 319 319 319 320 317 317 319 316 314 314 313 314 315 314 316 317 317 314 312 315 319 315 312 315 316 315 316
320 322 323 323 323 324 324 323 324 323 322 322 321 319 321 326 325 324 325 326 327 320 314 316 315 315 316 314 321 321 313 314 312 309 313 312 312 316 316 316 316 315 316 317 318 318 318 318 312 309 311 311 312 314 315 315 313 312 315 316 316 318 318 319 321 318 317 319 314 311 313 314 314 317 317 315 314 314 311 308 309 311 312 313 315 315 314 315
317 319 321 322 323 323 323 323 324 322 321 320 319 319 322 325 324 324 325 326 326 321 318 318 315 316 316 315 325 323 315 319 317 310 313 312 312 317 318 314 312 313 313 313 316 317 316 318 316 314 315 313 311 312 315 318 315 311 314 318 317 319 322 321 323 321 318 319 315 310 314 319 318 317 318 316 312 310 309 310 310 309 310 312 312 313 314 314
315 316 318 320 321 322 322 322 323 322 321 319 317 320 324 325 324 324 325 325 326 323 321 318 316 318 319 318 322 320 315 320 317 312 314 315 315 320 322 318 312 311 313 313 317 317 315 318 319 314 311 312 312 312 313 317 316 312 315 317 314 318 322 319 320 321 317 317 315 312 316 320 316 313 315 315 311 309 309 309 308 308 311 311 311 314 314 314
314 314 315 316 318 319 320 321 321 321 320 318 318 321 322 323 324 325 323 321 322 322 321 321 319 320 323 323 321 317 313 315 315 314 314 315 317 318 320 320 314 310 311 314 319 318 315 319 319 312 309 310 310 309 310 313 316 313 313 316 314 315 317 316 320 320 314 314 316 314 317 317 315 315 316 316 316 313 313 311 307 307 309 309 310 312 313 313
313 313 314 314 315 316 317 318 320 321 319 317 320 322 321 320 322 324 321 317 318 320 321 322 321 322 324 323 321 318 314 314 315 315 316 317 317 316 317 318 313 309 311 314 319 320 316 317 317 313 312 310 305 306 309 309 310 314 315 315 313 313 315 316 318 319 315 315 316 315 316 315 316 318 318 318 318 317 320 318 310 306 307 308 310 312 312 312
312 312 313 313 313 314 315 317 319 319 317 317 320 321 321 320 317 318 318 316 317 320 321 321 322 324 324 323 323 322 319 317 317 316 318 320 318 318 320 318 312 309 309 311 316 319 316 314 316 316 314 312 307 309 313 309 306 311 314 313 312 315 317 316 317 317 315 316 317 317 317 315 315 317 316 316 317 318 320 319 315 313 309 309 311 312 312 312
311 311 311 312 312 313 314 317 318 317 316 317 320 320 320 319 316 315 317 316 317 319 321 322 322 323 323 322 322 323 322 320 319 318 319 321 319 318 317 315 313 310 307 309 312 316 315 313 316 316 313 313 312 312 316 315 310 309 309 310 312 313 315 316 317 317 316 316 317 318 317 316 316 316 315 318 318 318 317 316 319 318 310 308 311 311 311 311
308 310 311 312 313 313 315 317 317 315 316 317 318 319 318 318 316 315 317 316 316 318 320 321 321 321 321 320 320 321 321 321 320 320 320 322 321 318 315 314 314 311 310 310 312 315 316 314 315 318 316 314 315 316 318 318 315 313 312 312 312 312 314 315 314 315 315 314 315 317 317 317 318 316 315 316 315 314 315 317 321 316 307 308 310 310 310 310
306 309 311 312 313 315 316 316 315 314 316 317 317 317 317 317 315 315 316 316 315 316 317 318 321 320 319 320 320 319 319 320 320 318 319 321 321 320 317 314 313 314 314 315 315 318 320 318 316 319 319 317 317 318 318 317 315 315 314 313 312 312 314 314 314 315 316 314 315 316 315 318 321 318 314 313 312 311 314 316 316 310 307 310 311 310 311 311
307 309 310 311 313 316 316 315 314 314 315 316 316 317 316 316 315 315 314 314 314 315 315 316 319 319 317 318 318 318 319 321 320 318 319 319 319 320 317 312 312 315 316 318 319 319 318 316 316 316 317 318 317 316 316 314 313 313 312 312 313 312 312 314 315 315 316 315 315 316 315 318 321 318 314 314 313 312 311 310 310 309 309 312 312 312 313 313
308 309 310 311 313 316 316 315 314 314 314 314 315 315 315 314 315 315 314 313 314 314 315 315 316 316 316 317 317 317 319 319 319 319 320 319 317 317 315 313 313 314 315 318 319 316 314 314 315 316 316 317 316 315 314 312 311 312 312 311 312 312 312 313 313 313 315 315 316 317 316 319 322 320 316 314 313 312 311 309 309 309 309 311 311 312 313 313
306 307 308 311 314 315 315 316 315 314 314 314 314 315 314 313 313 314 314 313 314 315 315 315 315 315 316 316 316 317 318 317 317 317 318 318 317 315 314 314 315 315 315 317 318 315 314 315 316 316 317 316 316 316 315 313 311 312 313 312 311 312 313 313 313 314 314 314 315 316 315 317 320 319 316 314 313 312 312 311 310 309 309 310 311 311 312 312
303 304 304 306 312 313 313 315 315 314 314 314 314 314 314 313 313 313 314 313 312 313 314 315 314 313 314 315 314 315 315 316 316 317 317 317 317 314 312 312 313 313 314 314 314 314 314 316 317 316 316 316 315 315 317 318 314 311 312 313 312 312 313 313 314 314 314 314 315 315 315 315 316 315 314 313 312 312 311 311 311 311 311 311 311 311 310 310
301 303 303 304 308 310 312 313 313 313 313 313 314 314 314 314 313 312 313 313 312 312 313 313 313 312 313 314 314 314 314 314 314 315 315 317 319 313 308 308 310 310 311 312 311 311 312 314 316 315 315 316 315 315 316 318 316 313 313 314 313 313 312 312 313 313 314 314 314 314 314 314 314 314 313 312 312 312 312 311 311 312 312 311 310 309 307 306
299 301 303 305 306 307 309 311 311 312 312 312 313 313 313 313 313 312 312 312 312 312 312 312 312 313 313 313 313 313 313 314 313 313 313 314 314 310 305 307 308 307 309 309 308 309 311 312 313 314 314 314 315 315 315 315 315 314 314 314 313 313 312 312 313 313 313 314 313 314 314 314 314 313 312 312 312 312 312 312 312 311 309 308 306 305 304 303
299 300 301 304 305 305 307 308 308 309 311 311 311 311 311 312 312 312 311 310 310 311 311 311 311 312 312 312 313 312 312 313 312 312 312 308 306 305 305 307 306 304 305 305 304 307 310 310 311 312 312 313 313 313 313 314 313 313 313 313 313 314 314 313 313 312 313 313 313 313 313 313 313 312 312 312 311 311 311 310 308 305 303 302 301 301 300 300
297 298 299 301 302 302 303 303 303 304 308 310 310 310 310 310 309 310 310 310 310 310 310 311 310 308 307 307 309 309 309 311 310 308 306 302 301 303 304 305 305 303 302 302 303 306 308 309 310 311 311 311 311 312 311 311 311 311 312 312 312 312 313 313 313 313 312 312 312 312 312 312 312 311 311 310 308 306 305 303 301 300 299 299 299 298 298 298
295 297 298 299 299 298 299 300 300 302 304 306 308 309 309 309 309 309 309 309 310 310 310 310 307 304 302 303 305 305 306 306 306 305 302 300 301 302 302 303 304 302 300 302 304 306 307 309 309 309 308 309 309 311 311 310 310 310 310 311 311 311 311 311 311 311 311 312 311 311 312 313 310 306 305 303 301 300 300 299 298 298 297 297 297 297 297 297
294 295 296 297 298 298 298 297 298 301 302 304 306 308 308 308 307 307 308 307 308 309 307 305 302 300 301 302 303 303 302 301 301 301 300 299 300 300 300 300 301 300 300 302 304 305 306 306 307 307 307 307 308 309 310 310 310 310 310 310 310 310 310 310 310 311 311 311 312 312 312 309 304 300 299 299 299 299 299 298 297 296 296 296 296 296 296 295
293 294 295 296 297 297 297 296 297 300 301 301 303 304 305 303 301 302 306 305 302 302 300 299 299 299 299 301 301 301 299 298 297 297 297 298 298 298 298 299 299 300 301 301 302 303 304 304 305 305 306 306 307 308 308 308 308 308 308 309 310 310 310 310 310 308 307 307 308 308 304 301 299 298 298 298 298 298 298 298 296 295 294 294 295 295 295 295
Wind_Speed
7 7 6 6 5 5 5 5 5 5 5 5 5 5 6 6 6 6 6 6 6 7 8 8 9 10 10 10 11 11 11 12 13 14 15 12 9 10 10 9 8 7 6 4 3 3 4 7 7 7 6 6 5 4 4 5 5 3 2 2 3 3 4 5 7 6 3 4 5 6 8 5 7 10 11 11 14 18 19 20 19 19 21 23 24 24 23 21
8 8 7 7 6 6 5 5 5 5 5 5 4 4 5 5 6 6 6 7 7 7 8 8 9 9 10 11 11 13 13 14 16 16 13 6 5 6 8 11 12 10 8 6 4 3 4 7 8 8 8 6 5 4 4 5 7 5 3 2 5 5 6 7 8 7 4 5 7 11 13 7 9 11 8 7 13 16 14 16 17 20 24 25 26 26 26 26
10 9 9 8 8 7 7 6 6 6 6 6 5 5 5 5 6 6 6 7 7 8 8 9 10 10 12 12 12 13 13 16 15 10 5 1 4 9 7 8 11 13 11 8 6 5 5 7 8 8 9 7 5 5 4 5 7 6 4 2 7 8 6 10 12 12 13 12 10 13 12 7 12 12 7 6 13 16 13 15 14 19 26 25 25 27 28 28
12 11 10 10 9 9 8 8 7 7 7 7 7 7 7 7 7 7 8 7 8 8 9 10 11 12 13 13 14 13 14 15 7 6 7 5 9 11 8 6 9 12 12 10 8 8 7 8 9 8 9 7 6 6 6 8 8 5 6 5 7 5 4 14 17 16 18 14 10 11 8 9 15 12 10 9 9 14 15 14 15 19 24 22 21 24 27 29
13 13 12 11 11 11 10 10 10 9 9 9 9 9 9 9 9 10 10 10 10 9 10 10 11 12 13 14 14 13 13 8 1 7 11 9 9 9 8 7 7 10 13 11 10 11 10 10 10 9 8 6 5 4 6 13 11 5 8 13 11 5 4 16 17 13 15 12 10 10 8 12 15 12 15 12 7 17 22 15 15 20 22 21 20 22 25 28
13 14 13 13 13 13 13 12 12 12 11 11 11 11 11 12 12 12 12 12 12 12 12 12 12 13 14 15 15 14 9 3 7 13 12 8 8 10 9 7 6 8 12 12 12 12 12 12 12 10 7 4 6 7 7 13 14 6 8 13 17 15 12 19 19 13 15 13 12 11 12 16 14 14 18 16 19 33 39 29 27 30 28 25 24 24 27 28
14 14 14 14 14 14 14 14 14 14 13 13 13 13 13 14 15 15 15 14 14 15 14 14 15 15 15 17 17 14 8 10 15 14 9 8 10 12 10 9 7 7 11 13 15 15 14 14 14 12 6 2 6 9 8 11 14 8 6 7 16 20 20 26 25 21 21 18 19 17 16 17 13 13 14 19 33 45 46 39 37 37 34 31 29 29 30 30
14 14 14 15 15 15 16 16 16 15 15 15 15 15 15 16 16 17 17 16 17 16 16 17 16 17 17 18 18 14 12 16 15 10 8 9 12 15 13 12 9 9 10 13 16 16 15 15 17 13 5 5 7 7 7 7 8 8 9 8 11 15 20 26 25 24 22 20 22 18 16 23 22 16 15 30 46 47 43 41 39 35 32 30 31 31 31 32
14 14 15 15 16 16 17 17 17 17 17 17 17 17 17 18 18 18 18 18 18 18 18 18 18 19 18 19 19 14 16 17 10 9 11 12 16 17 15 14 12 11 11 12 15 16 16 18 20 16 9 8 7 6 6 5 5 9 13 11 9 13 19 22 22 21 18 20 20 11 15 27 26 14 17 38 45 40 37 36 33 27 24 25 25 27 29 32
16 15 15 16 16 17 18 18 18 19 18 18 18 19 19 19 19 20 20 20 19 19 19 19 19 19 18 21 16 10 16 17 12 14 16 17 20 18 18 16 14 14 13 13 15 17 20 19 17 16 13 8 6 6 5 6 5 6 9 12 14 16 22 21 19 18 14 17 19 11 14 26 21 5 13 37 38 31 31 32 31 26 26 26 24 25 26 29
16 15 15 15 15 16 17 18 18 18 19 19 19 20 20 20 21 21 21 21 21 20 20 19 19 19 20 22 17 14 21 22 19 21 20 20 22 20 19 17 16 15 14 15 15 17 19 18 13 10 9 5 4 5 6 9 7 7 8 11 15 13 21 23 16 17 12 12 18 16 13 20 12 2 18 41 39 30 30 32 34 32 33 33 29 28 27 29
17 17 16 16 16 17 17 18 18 18 18 19 19 19 19 20 21 22 22 22 22 21 20 19 19 19 19 22 26 25 26 25 23 23 21 22 23 22 21 19 19 16 15 15 15 16 16 17 14 10 8 5 3 2 4 7 5 9 6 7 13 8 16 23 13 14 11 7 11 11 6 11 6 11 31 43 39 32 30 32 34 33 35 34 32 31 29 30
18 18 18 18 18 18 19 19 19 19 19 19 19 19 19 20 20 21 22 22 22 21 21 19 18 19 16 22 30 28 25 25 25 24 23 24 24 24 24 22 20 17 17 16 15 16 15 15 15 14 13 8 4 4 5 4 5 9 3 1 9 7 10 11 2 2 6 5 6 10 3 9 8 21 37 38 34 31 27 30 33 32 33 32 32 32 31 31
18 18 19 20 20 20 20 21 21 21 21 21 21 20 20 20 20 21 22 21 21 21 21 19 19 17 15 23 31 29 26 27 27 26 24 24 24 25 25 23 20 18 17 17 16 16 14 12 12 13 14 12 10 9 7 6 4 5 3 1 3 3 8 6 5 2 3 5 11 11 5 11 11 23 36 33 28 26 24 30 34 33 33 32 32 32 33 32
16 17 18 18 19 20 20 21 21 22 22 23 23 23 22 21 21 22 21 21 21 20 20 19 18 15 13 22 30 26 26 28 27 26 22 21 23 24 24 21 19 18 17 17 17 16 13 10 9 9 10 12 12 7 4 5 3 2 2 4 1 2 7 12 11 6 8 7 11 11 5 9 11 21 33 28 21 21 22 29 32 32 34 34 33 33 35 37
12 13 14 15 16 16 17 18 19 20 21 22 22 23 22 22 22 22 22 22 21 20 19 17 18 13 8 16 23 23 25 27 26 23 22 22 22 23 22 18 16 16 16 16 15 13 11 8 8 8 8 9 6 1 4 4 5 3 2 5 4 4 4 8 13 9 11 5 6 9 6 6 8 17 26 22 18 18 19 26 31 33 36 35 35 35 38 42
9 10 10 11 12 13 14 15 16 17 18 19 20 21 20 20 20 19 19 20 19 17 16 14 14 11 10 15 21 25 27 25 24 22 21 21 21 21 21 18 16 15 14 13 12 9 8 9 7 5 5 4 2 5 3 3 6 4 1 4 5 7 5 4 10 8 4 5 6 8 8 10 12 15 23 25 24 19 16 25 31 32 36 37 38 40 44 47
8 9 9 10 10 11 12 13 14 15 16 16 18 18 18 17 16 16 16 16 14 10 10 11 8 3 10 17 18 20 20 18 17 16 16 16 17 18 18 18 15 13 10 7 8 9 10 7 5 1 2 3 2 5 3 6 8 7 5 5 4 5 7 7 9 7 3 5 6 4 8 14 15 15 23 32 33 25 21 28 33 34 38 41 41 44 49 50
8 9 10 10 10 11 12 13 13 14 15 14 14 16 15 14 12 11 11 10 9 5 4 9 12 5 7 11 13 15 16 15 15 16 18 18 17 16 16 15 11 11 8 4 5 11 11 4 4 2 3 7 7 7 10 14 14 11 7 6 6 6 7 8 11 9 5 9 8 7 13 16 15 15 19 30 34 29 29 30 33 34 37 41 42 46 49 49
8 9 9 10 11 11 12 13 13 14 15 14 13 12 10 8 6 5 6 10 12 12 12 14 17 17 16 17 19 20 20 21 21 20 20 19 16 14 14 12 9 9 7 5 5 7 9 5 3 6 11 13 12 12 16 16 11 7 4 6 8 8 10 10 12 13 4 5 9 10 15 16 15 15 16 26 28 24 27 28 30 33 35 38 41 46 49 48
8 9 9 10 10 11 12 13 13 13 15 15 14 11 8 7 4 5 9 13 18 20 22 23 23 26 28 27 26 24 20 20 22 22 18 16 13 10 11 11 8 5 5 5 4 2 6 6 7 13 16 13 11 12 13 10 6 6 6 8 8 7 13 13 13 16 4 2 10 10 15 18 16 15 15 21 20 17 24 27 29 33 34 37 40 46 50 50
10 10 9 10 10 10 10 12 13 12 13 13 13 12 11 10 7 8 10 12 19 22 24 27 29 32 34 32 33 30 21 16 18 19 15 13 13 10 9 9 5 3 3 4 2 1 4 5 11 18 14 6 6 5 5 6 6 7 6 6 8 6 10 12 12 14 4 2 8 9 14 17 14 14 14 16 18 20 30 33 35 37 33 36 42 46 50 50
13 11 11 10 10 10 9 11 12 11 12 11 12 15 13 12 11 12 10 7 15 21 24 28 30 34 35 33 35 32 23 17 16 16 15 14 14 12 9 8 4 2 4 6 7 7 5 6 14 18 10 4 8 5 3 4 5 6 6 6 8 5 7 9 6 7 4 3 7 9 14 14 11 14 13 19 27 27 32 38 41 42 38 42 48 48 48 49
14 14 14 13 12 12 10 11 10 10 12 11 11 14 13 12 13 14 11 6 8 13 20 25 23 26 29 27 25 22 19 18 16 13 15 18 15 9 8 8 5 3 6 10 12 11 8 7 11 11 8 8 10 8 5 6 7 9 9 8 10 10 12 12 4 6 6 4 6 8 14 12 9 13 11 15 23 22 27 32 34 41 46 48 48 46 48 50
15 15 16 15 14 14 13 11 8 10 13 10 10 13 13 12 12 13 10 4 5 7 11 13 10 12 16 14 13 11 10 14 16 14 13 17 18 9 4 8 6 5 9 9 8 10 10 10 7 5 6 9 9 8 8 8 9 10 8 12 17 16 13 13 8 7 6 4 4 3 9 10 5 10 10 8 9 11 17 19 24 38 44 41 40 43 48 49
16 16 16 17 16 15 14 10 8 11 12 9 10 12 12 11 11 12 8 2 4 4 3 4 3 3 4 5 5 7 4 5 9 15 14 15 19 12 3 6 5 4 7 5 4 5 6 8 8 8 8 9 7 7 8 11 9 9 6 12 17 13 10 11 8 4 2 4 3 2 1 10 6 6 10 9 7 10 12 11 19 32 34 32 36 43 45 45
15 15 16 17 16 16 14 11 10 11 9 8 9 10 10 9 11 11 6 3 4 2 3 3 3 2 2 4 10 11 4 3 1 6 14 15 17 13 5 4 3 3 4 3 3 3 3 4 5 6 7 6 6 8 8 11 8 7 5 9 11 9 9 8 5 4 4 3 3 2 5 6 13 7 9 11 10 11 13 13 16 22 28 32 37 42 42 40
16 15 15 15 16 17 15 13 13 10 7 6 7 8 8 8 9 8 4 3 4 2 3 2 4 2 1 9 14 9 1 2 2 1 7 11 13 10 5 5 5 4 3 4 5 4 4 4 6 7 5 5 8 8 7 12 8 6 3 5 7 7 6 5 5 5 1 4 4 4 5 2 13 8 4 5 8 9 14 16 15 16 25 33 36 37 36 35
19 18 16 13 14 16 16 15 13 10 7 6 5 7 8 6 6 6 3 3 3 3 2 2 3 1 3 9 10 5 3 2 1 2 4 7 11 8 2 4 5 4 4 5 8 6 1 3 5 7 6 6 9 5 7 13 8 4 5 5 4 3 3 4 4 3 2 5 5 6 6 3 12 9 3 2 3 8 12 12 11 14 23 31 32 33 31 30
19 19 18 16 14 16 17 15 11 9 7 6 5 5 7 4 2 2 3 4 2 1 1 2 2 1 4 5 2 4 2 2 1 4 4 5 8 6 1 1 1 2 4 4 7 10 6 1 1 5 7 5 3 1 2 8 5 2 5 4 6 4 4 4 1 3 2 7 6 10 12 6 7 6 4 3 4 7 8 7 8 12 19 29 31 31 28 26
20 19 19 20 18 17 17 15 11 8 7 6 5 4 3 2 2 3 7 2 2 2 1 1 1 2 4 4 2 2 2 2 2 5 3 3 4 2 1 1 0 2 3 4 6 8 5 3 2 5 7 4 4 2 2 1 1 2 3 3 4 4 4 5 4 3 2 8 5 9 12 9 8 6 1 4 7 6 7 6 8 9 14 25 29 29 28 26
22 21 21 23 22 20 18 15 11 9 7 6 6 3 1 1 1 6 5 4 2 2 1 1 1 2 3 2 1 3 1 2 3 5 4 3 3 3 3 4 3 1 4 3 3 6 3 6 4 1 5 8 5 1 3 5 2 3 3 2 0 4 3 3 3 1 3 8 4 6 7 5 11 9 4 8 10 9 8 8 11 10 12 24 28 27 27 26
23 23 23 24 24 23 20 17 13 11 9 7 6 2 4 2 6 4 2 2 2 1 1 1 0 2 4 1 3 4 2 3 4 4 3 3 2 3 5 5 5 2 5 2 2 5 4 5 2 2 4 9 9 5 3 2 3 7 5 5 4 2 2 4 4 2 5 7 2 3 5 4 10 7 7 13 12 11 9 11 19 20 20 27 29 29 28 26
22 23 24 24 24 24 21 19 17 14 11 8 6 3 2 7 7 1 3 6 3 3 1 2 2 1 2 2 4 4 3 4 4 4 3 3 1 3 4 5 6 3 2 2 1 2 4 7 4 5 3 8 12 10 8 4 4 6 5 5 5 5 5 4 4 5 7 5 3 1 4 5 5 3 6 10 10 11 12 15 19 22 23 25 27 30 30 28
20 20 21 23 25 24 21 19 19 16 12 10 6 2 5 8 5 1 4 5 2 3 4 1 2 1 3 4 4 4 6 5 1 4 3 3 3 4 3 4 7 6 3 2 2 3 5 9 6 3 2 9 9 7 5 5 1 3 3 4 4 5 4 3 6 6 5 4 3 3 4 5 5 5 7 7 8 11 14 15 13 16 21 21 23 29 29 30
20 19 19 21 23 22 21 21 18 16 16 12 5 4 9 7 4 3 3 3 3 3 1 4 2 3 4 3 2 3 4 3 1 2 3 3 3 4 4 3 7 10 7 5 2 2 4 7 4 1 1 4 4 3 2 4 3 1 3 3 4 2 5 3 6 3 1 4 6 6 8 6 4 9 7 3 5 7 9 11 10 14 20 20 21 24 25 25
20 19 20 22 21 17 17 18 17 19 20 14 5 8 7 4 6 6 3 2 2 3 3 3 3 4 4 3 3 3 2 2 2 2 3 3 3 4 5 4 6 12 13 9 3 3 4 8 6 1 2 4 3 3 2 0 3 4 3 5 2 1 2 2 2 2 2 7 6 8 14 11 6 9 6 6 9 9 7 7 6 9 12 12 14 16 14 13
21 20 23 26 23 18 15 14 17 24 21 10 8 12 5 3 7 7 5 3 0 1 3 5 4 3 4 4 4 3 3 3 3 3 3 2 3 5 6 4 5 10 15 10 2 1 1 5 7 2 2 3 4 2 3 4 2 4 3 2 2 1 3 1 2 2 5 8 5 6 13 11 7 10 9 8 9 9 7 7 7 7 7 9 13 15 12 11
20 17 19 19 16 16 16 15 21 27 17 5 9 11 4 4 6 8 10 6 1 1 2 5 4 3 4 5 4 2 4 5 4 3 3 3 4 5 4 2 3 5 9 8 4 2 1 2 5 1 3 1 4 0 2 3 2 1 2 3 1 3 3 3 3 2 4 8 8 7 9 7 7 9 9 7 8 7 7 7 6 6 8 12 16 18 18 19
15 10 11 10 8 10 17 19 23 22 10 4 9 7 2 3 6 11 15 11 3 3 4 4 4 5 6 6 6 4 3 4 5 4 4 3 4 4 3 2 3 3 3 6 5 2 2 2 5 2 1 2 2 3 5 4 2 2 2 3 3 3 1 1 2 2 3 7 7 7 8 7 4 6 7 7 6 5 6 6 6 8 14 20 20 19 22 27
10 6 8 9 7 11 20 21 16 12 5 4 7 6 4 4 4 7 14 15 10 8 6 4 5 6 6 6 6 3 2 3 5 5 4 4 5 5 4 5 7 4 2 3 2 2 1 2 2 2 4 6 7 6 7 6 5 4 4 4 5 5 3 5 6 5 4 6 7 8 9 6 3 7 11 9 6 5 6 6 5 10 21 30 32 33 35 41
10 5 6 8 11 16 22 15 8 7 5 5 7 7 6 6 5 5 9 13 10 7 6 5 5 5 4 6 6 3 3 4 5 5 5 6 7 6 5 7 9 6 2 1 4 4 3 2 2 5 7 10 13 9 6 7 6 5 5 5 6 6 5 7 9 7 5 5 5 7 9 6 5 10 16 15 13 12 10 8 8 15 25 31 37 43 45 46
11 9 7 7 13 22 19 7 6 7 4 5 7 7 6 5 4 4 6 8 7 4 5 4 5 7 6 6 6 5 4 5 6 7 6 5 7 11 13 13 7 3 1 2 3 4 4 3 3 7 5 6 10 12 9 6 5 5 6 8 9 10 10 10 8 6 6 6 5 8 9 4 5 9 13 15 18 20 19 19 16 17 23 27 31 37 40 41
8 12 12 9 14 23 16 4 6 8 5 6 6 8 10 7 6 7 5 5 6 5 4 4 5 7 7 6 6 6 5 5 7 8 8 4 5 12 20 23 16 6 5 6 4 4 4 3 3 5 5 5 6 8 8 4 4 6 8 10 11 12 14 12 7 3 5 9 9 11 10 5 5 7 9 14 19 19 21 26 23 18 21 25 27 31 35 38
3 8 13 14 19 24 17 9 8 6 6 9 8 8 9 7 9 15 12 6 8 7 3 4 5 5 5 4 4 5 5 6 7 5 5 4 3 5 8 14 16 10 8 8 3 0 3 5 5 5 7 9 10 8 5 3 3 3 5 9 12 13 15 12 7 6 8 10 12 12 10 8 8 8 10 14 19 19 21 28 29 24 24 27 29 29 27 26
1 3 6 10 17 20 20 20 14 5 4 8 8 7 11 11 11 14 12 9 12 13 6 4 4 3 2 3 6 7 7 8 7 5 5 5 3 2 9 13 8 6 9 9 6 3 1 3 6 11 12 12 13 12 8 4 3 4 5 9 10 10 12 10 7 9 10 10 12 12 13 14 12 11 14 17 19 20 20 23 28 28 26 25 24 19 15 15
1 2 2 3 8 13 16 19 16 8 5 6 4 4 11 12 8 7 9 8 10 12 7 4 6 6 5 6 8 8 8 9 9 9 9 6 3 4 12 12 8 9 9 7 7 2 2 3 7 13 15 14 15 17 16 14 13 12 12 12 11 10 11 10 11 13 12 12 13 12 13 16 13 11 15 19 19 19 19 20 25 26 22 19 18 21 23 24
3 3 3 2 2 5 6 8 9 7 9 9 4 4 9 11 7 6 6 3 4 8 5 4 6 7 6 6 6 5 5 7 7 6 5 2 3 6 9 5 4 11 10 6 7 2 3 4 7 12 15 15 16 18 18 18 16 15 15 16 16 16 16 16 18 18 14 14 15 13 14 18 15 13 16 18 18 17 15 17 22 28 31 30 29 28 29 31
5 5 5 3 3 4 5 5 6 5 8 9 5 6 10 12 12 9 3 1 2 4 7 6 3 1 1 2 2 2 2 4 5 2 2 4 3 3 4 3 1 9 10 6 5 1 4 3 5 9 12 13 14 16 17 18 17 17 16 15 15 17 18 19 20 19 18 19 19 18 21 22 17 14 14 12 13 16 18 24 28 29 29 29 29 30 30 31
5 4 5 6 5 7 8 7 6 5 3 5 4 6 7 9 10 7 3 4 4 3 5 6 2 3 3 2 1 3 2 1 2 1 2 3 3 1 1 3 3 5 7 4 3 3 4 3 5 6 8 10 12 13 14 15 15 16 16 14 14 16 18 18 18 17 18 21 22 23 24 18 9 9 9 14 21 21 20 22 22 23 26 27 27 28 29 30
8 6 6 6 5 5 5 4 3 3 3 4 4 4 5 6 6 4 2 2 2 1 2 2 2 2 3 3 3 4 2 2 1 3 2 2 4 4 2 3 6 7 6 3 2 2 3 4 6 7 8 9 11 13 14 13 13 14 15 16 18 18 16 15 16 16 17 19 21 21 16 7 7 10 9 13 17 15 13 14 17 22 27 27 26 27 28 30
10 9 6 4 4 5 3 2 2 3 3 2 2 3 2 1 5 6 3 1 7 9 8 5 3 2 1 3 2 3 3 1 3 7 9 10 13 14 13 13 12 8 5 4 3 3 4 4 5 6 7 8 9 13 13 11 11 12 11 13 16 17 16 16 15 13 10 10 10 9 5 3 6 9 11 14 14 13 13 11 13 20 25 26 27 27 28 30
Wind_Direction
307 310 311 315 316 316 318 321 325 330 338 345 351 357 356 358 3 5 7 8 9 7 5 5 2 360 357 351 348 346 339 329 320 305 297 302 290 263 253 250 250 243 241 249 248 247 215 194 196 198 205 214 229 242 228 220 195 174 108 143 242 207 202 195 192 206 189 263 282 321 311 250 266 278 268 278 268 261 262 255 249 248 248 252 257 261 262 264
301 303 304 306 304 303 303 301 306 310 315 322 330 336 339 341 341 345 346 348 351 351 352 351 350 349 347 345 344 342 340 333 323 311 304 303 303 294 267 254 254 249 245 246 236 232 224 208 202 201 206 214 229 232 218 212 195 181 130 171 232 206 212 207 204 218 213 260 280 300 304 265 257 278 280 281 269 266 263 256 250 250 254 255 257 259 261 261
298 300 301 301 298 296 293 291 291 291 296 302 307 313 316 318 319 324 326 329 334 336 338 338 338 337 337 337 336 338 339 333 325 329 347 31 359 346 317 271 255 247 243 243 227 210 221 216 208 204 207 217 226 221 210 197 198 202 177 225 245 219 237 250 243 247 254 269 288 297 297 266 269 277 264 268 281 277 258 251 244 245 259 263 262 261 260 260
298 299 300 300 297 295 292 290 287 285 287 288 295 300 300 302 302 304 307 311 316 320 324 327 328 329 329 329 331 334 337 334 333 37 18 331 332 335 325 295 257 241 233 230 221 208 213 212 206 202 206 221 223 218 215 203 200 192 179 212 238 197 236 259 256 261 270 279 277 281 293 286 286 279 252 263 297 286 263 254 248 248 265 274 269 267 263 259
298 299 300 299 298 296 295 291 289 286 285 286 290 293 295 297 296 298 300 302 306 308 313 316 319 322 321 322 324 327 341 349 22 13 345 323 334 335 329 307 268 243 227 219 220 211 207 210 206 200 207 224 200 194 228 213 197 179 212 229 237 201 230 266 268 272 278 284 278 277 286 286 290 279 258 249 240 269 274 276 274 271 278 282 277 274 267 259
296 297 298 299 298 297 295 293 291 289 287 288 288 290 293 294 295 297 298 301 304 305 308 311 314 317 317 318 317 318 330 298 295 327 325 315 330 328 327 314 286 257 233 220 222 214 210 211 206 201 204 222 194 191 228 212 199 217 243 237 246 238 240 267 271 271 277 282 279 276 279 283 289 285 272 245 239 267 279 279 280 282 283 282 279 272 266 259
293 295 296 296 295 295 294 293 292 290 289 289 288 289 290 291 293 294 296 298 300 303 306 308 311 314 315 315 312 309 291 274 297 312 304 305 318 318 316 305 292 264 241 229 225 218 217 213 209 209 197 229 216 210 230 214 200 223 261 238 250 248 246 264 270 271 275 275 275 276 281 278 270 279 283 261 262 275 282 281 280 282 283 280 274 268 264 261
290 292 294 294 293 293 293 293 292 291 290 290 289 288 288 289 290 290 292 293 295 298 299 303 306 308 312 311 309 304 282 286 302 302 294 302 311 315 307 296 288 268 253 242 233 224 223 218 217 216 203 229 224 210 216 221 210 217 244 245 248 253 256 267 272 271 271 269 273 276 274 270 264 270 279 272 276 282 284 285 285 284 284 278 272 268 263 261
288 289 291 292 292 292 292 293 292 291 291 291 290 289 288 288 288 288 289 288 291 292 293 297 299 301 304 303 304 299 286 292 300 295 300 301 305 308 300 294 288 277 266 250 237 229 226 226 226 223 231 244 231 224 199 207 235 214 231 252 258 263 271 276 274 269 267 265 266 264 267 272 274 277 273 271 276 286 288 288 290 289 285 279 275 271 265 262
286 286 287 288 288 289 290 290 291 291 292 291 290 290 289 288 288 288 287 288 288 288 290 291 293 295 295 294 293 282 284 291 293 296 300 298 299 299 295 293 286 279 271 257 241 233 232 235 240 234 245 261 240 234 200 197 240 240 254 273 272 276 284 281 274 272 267 263 254 230 257 271 276 281 265 272 276 282 285 287 290 289 285 283 279 276 271 266
284 285 284 283 283 284 285 286 288 288 289 288 288 288 288 287 287 287 286 287 286 287 287 286 289 287 287 286 271 260 282 290 291 293 294 294 294 291 290 286 279 274 266 264 255 248 244 242 250 242 243 260 250 243 228 230 252 287 308 299 285 295 297 283 271 269 257 262 251 221 247 273 278 203 248 270 279 276 277 284 288 287 287 287 283 279 273 271
284 285 284 283 283 282 283 285 286 286 286 286 285 285 285 284 283 283 283 284 284 284 283 283 282 279 281 275 264 268 284 288 287 288 288 288 288 286 286 280 273 268 260 262 260 260 254 245 243 239 242 252 279 300 249 246 277 303 332 317 295 330 308 284 273 261 229 241 251 200 244 281 252 235 252 268 278 274 272 277 283 286 288 289 287 284 278 279
285 285 286 285 284 284 285 285 285 285 285 284 284 284 283 281 280 280 279 279 280 280 281 280 278 277 274 267 271 279 285 283 282 282 283 283 283 282 280 275 269 262 258 258 256 258 254 248 240 239 254 257 261 277 278 308 326 302 330 340 301 338 307 284 358 260 206 217 212 160 239 273 242 252 261 271 276 272 270 271 277 282 283 284 285 285 283 285
287 287 287 287 287 288 288 288 287 286 285 285 284 283 282 280 279 279 278 278 277 276 278 278 277 275 262 265 278 283 281 281 280 279 280 280 278 276 273 269 265 258 257 256 255 256 253 250 241 240 253 253 259 276 299 338 338 299 310 297 306 308 282 303 39 88 241 245 187 164 248 260 256 264 267 274 274 270 267 268 274 277 278 278 278 281 282 282
289 289 289 289 290 291 290 291 290 289 288 287 286 285 283 281 279 278 278 278 276 276 277 276 274 268 258 268 277 279 279 277 277 280 279 274 270 268 267 264 260 255 252 252 253 252 248 240 230 232 248 256 265 282 327 344 346 12 289 283 312 220 270 306 312 227 230 258 176 168 248 258 261 269 272 278 274 264 259 265 273 276 277 277 275 277 279 280
296 296 294 294 294 294 294 294 294 293 293 292 291 290 288 285 282 279 279 277 276 274 272 270 267 257 251 273 275 273 274 273 277 280 273 269 266 262 261 259 254 250 246 246 248 246 237 222 217 226 241 258 253 148 36 349 317 346 218 256 267 253 274 312 303 248 218 234 177 196 232 260 264 266 275 283 279 265 254 262 270 273 277 276 275 276 277 279
312 310 306 305 303 303 303 301 302 300 299 299 296 294 294 291 287 284 280 276 272 266 262 260 258 249 246 264 270 271 273 275 276 274 268 268 264 258 255 249 243 241 239 238 239 228 208 196 196 225 241 246 140 101 49 301 276 294 217 240 247 249 262 288 298 290 224 189 205 230 235 248 258 266 277 281 283 279 259 264 270 271 275 274 275 276 276 277
332 331 326 321 318 318 317 315 314 308 307 308 305 303 302 299 296 290 283 276 266 254 253 236 211 227 252 251 260 271 278 277 270 265 263 261 256 251 244 240 237 229 219 217 217 194 184 183 168 190 295 246 144 117 180 235 239 244 231 244 256 245 251 253 268 294 321 239 220 237 250 252 260 271 278 276 278 280 267 267 271 271 273 274 274 275 276 276
341 343 338 334 333 333 329 328 326 320 317 316 314 312 309 309 305 295 285 268 239 217 239 209 189 203 256 250 259 270 273 270 265 261 259 259 256 244 230 229 222 197 179 169 198 182 169 144 109 135 247 234 210 169 201 225 230 237 232 235 255 257 251 246 254 263 288 282 261 249 257 258 263 267 271 273 275 276 272 269 268 270 271 273 274 274 275 274
338 341 340 340 341 341 339 336 335 332 327 324 326 325 324 331 323 300 288 265 248 249 258 240 227 240 255 263 269 271 270 269 267 262 259 260 255 233 212 201 180 177 176 160 187 184 168 168 158 192 221 224 212 198 214 230 240 255 248 243 250 258 264 256 264 267 252 277 267 250 263 267 265 263 264 270 273 275 275 271 267 267 268 270 272 273 274 274
325 328 333 339 341 343 341 338 339 340 339 336 340 348 2 6 345 304 304 287 276 270 266 262 253 250 258 264 264 264 267 268 265 260 258 252 236 213 195 179 154 177 200 152 139 150 170 195 207 213 224 223 215 213 223 241 263 265 247 261 261 247 263 260 263 271 248 229 266 259 271 272 264 264 264 268 269 262 264 269 269 268 267 268 270 271 273 275
308 310 320 325 329 337 338 338 336 340 347 345 349 5 12 3 343 315 313 291 283 280 270 267 258 252 258 260 257 256 258 264 264 256 249 232 210 203 189 171 169 191 165 131 122 224 206 223 227 226 233 242 248 234 213 232 239 244 242 266 267 246 270 268 251 266 263 196 273 274 269 269 267 265 258 258 258 251 255 260 265 268 268 267 267 269 272 274
297 300 308 311 317 324 330 336 331 335 346 346 356 8 5 356 349 333 322 281 280 284 271 262 255 252 256 256 253 251 247 250 258 254 246 225 200 202 193 163 165 164 147 182 206 222 227 235 233 233 236 238 257 249 197 252 238 220 224 245 263 249 263 264 243 280 298 218 269 287 275 273 267 263 254 247 250 252 254 256 261 264 264 263 263 265 269 271
294 298 301 307 313 314 321 331 330 336 342 345 359 4 0 355 350 339 325 279 273 281 267 261 254 253 257 257 253 248 241 241 248 255 248 228 200 192 198 173 150 169 199 209 218 233 243 241 231 225 215 208 238 246 221 258 258 227 215 222 252 247 242 253 278 337 322 269 272 293 292 283 237 239 250 245 247 250 252 254 259 260 260 261 263 265 267 269
286 291 296 303 307 309 316 323 325 335 339 342 351 356 359 353 348 344 335 301 280 273 257 258 257 251 252 255 252 238 233 240 243 245 245 227 206 190 187 178 173 211 216 215 231 251 257 250 221 183 199 204 217 236 213 213 250 255 216 209 237 247 250 261 290 339 338 301 302 333 304 295 206 201 236 248 245 247 247 248 253 255 258 260 264 267 267 269
279 282 286 292 299 303 308 312 318 329 335 335 342 352 355 351 354 351 351 4 295 269 216 222 229 224 225 234 212 177 193 260 249 233 226 221 212 203 178 175 191 229 203 194 236 254 256 242 212 197 209 197 197 241 221 196 235 272 227 207 228 242 254 260 274 309 274 258 294 71 275 287 281 201 217 236 240 246 246 242 246 251 257 261 263 266 269 271
271 273 272 276 284 290 293 297 306 321 332 330 339 352 347 351 2 357 3 3 292 229 143 181 176 170 216 179 160 151 183 290 9 211 207 207 207 202 210 203 200 243 173 137 284 245 207 228 223 214 207 177 189 242 219 179 205 266 229 195 208 222 235 234 223 223 233 274 294 152 145 272 287 249 193 212 226 244 252 246 249 254 258 261 262 265 269 272
259 261 263 266 270 274 278 284 296 312 319 317 334 345 344 350 357 7 39 315 291 122 111 190 152 119 179 166 169 161 30 320 58 140 194 197 199 193 225 224 190 228 175 148 253 247 158 202 219 193 174 184 210 228 183 159 194 251 180 157 178 192 202 167 163 198 237 341 289 209 138 222 280 270 158 203 227 241 253 248 249 255 256 258 260 264 268 271
256 255 257 260 265 268 271 277 289 298 294 298 319 339 350 346 348 26 90 249 303 83 109 192 152 122 124 150 184 210 3 17 82 135 156 181 196 186 229 234 189 236 237 192 238 264 200 215 204 164 162 215 223 226 164 164 199 223 120 95 78 89 87 109 150 154 82 314 262 191 154 196 278 281 97 78 237 236 249 251 252 254 256 259 262 265 266 270
258 255 251 252 257 261 266 274 280 281 280 281 288 332 358 345 2 45 221 240 337 6 160 171 189 159 120 126 210 259 255 294 96 138 131 144 187 194 199 260 165 206 263 255 251 258 249 243 102 175 203 213 177 78 175 180 195 119 100 58 30 26 32 60 64 88 81 283 244 180 178 180 276 285 136 160 234 231 240 254 264 263 261 261 260 262 264 268
259 256 248 249 252 253 260 269 271 266 260 258 275 313 344 347 64 192 233 256 10 291 130 145 282 95 116 130 220 255 225 260 175 151 154 116 157 185 114 249 171 83 325 299 272 273 258 208 213 215 209 180 115 87 344 4 97 92 89 59 19 327 3 30 349 56 141 263 242 181 179 174 233 261 191 263 275 259 237 236 251 256 263 266 262 258 260 265
253 251 246 247 252 251 252 259 262 255 242 241 260 271 152 355 241 216 244 2 357 256 132 195 254 124 125 97 209 218 179 237 192 154 166 143 147 185 191 199 184 287 300 262 277 309 277 220 229 218 199 188 159 154 330 355 67 125 118 123 6 308 344 356 304 98 204 254 246 171 166 194 245 254 267 270 270 257 236 230 242 246 267 277 274 266 263 266
249 246 244 245 249 252 251 255 259 250 243 237 229 169 105 218 244 208 200 300 251 236 87 139 52 138 138 90 252 215 183 220 188 165 170 139 156 236 241 216 173 216 264 219 327 316 288 266 201 110 240 198 163 168 234 267 176 162 156 161 169 208 247 260 265 272 261 266 275 166 173 246 278 272 232 236 247 255 255 251 251 253 263 273 277 277 275 276
252 248 246 244 247 251 249 251 253 251 245 219 188 125 130 230 243 131 177 231 253 334 3 113 71 8 169 229 249 199 210 251 172 155 166 127 149 255 257 234 191 180 244 229 309 232 255 286 209 169 227 178 174 204 204 161 161 187 166 146 174 189 195 221 231 248 262 276 314 217 189 229 271 274 221 228 257 278 275 264 259 261 266 271 276 281 284 283
258 255 249 245 245 244 242 241 240 242 229 189 158 152 215 233 247 232 222 228 266 305 300 330 116 291 271 256 263 219 217 251 125 127 174 167 183 210 211 214 191 170 152 205 256 171 215 269 246 207 162 156 180 226 181 124 179 232 129 115 221 206 172 221 242 235 252 290 290 231 224 232 244 271 260 251 272 278 274 273 275 282 283 285 281 279 282 282
261 260 254 252 246 240 241 236 228 231 214 176 145 227 224 235 222 191 210 191 182 190 292 310 215 213 271 259 272 252 204 215 194 126 204 203 210 216 214 221 189 176 172 184 235 219 233 269 265 41 34 168 205 279 165 158 213 216 124 187 242 177 141 224 271 285 308 265 254 241 260 279 297 287 290 337 315 289 285 284 285 290 290 291 286 283 286 291
264 263 261 257 251 244 240 230 222 225 208 177 196 233 220 235 210 199 208 163 167 143 134 261 231 198 245 251 253 245 170 194 206 183 215 218 233 208 200 240 199 184 197 202 221 239 247 277 274 210 253 267 306 325 324 90 139 132 177 220 238 50 121 167 263 318 257 246 246 243 259 279 302 284 302 2 329 305 294 284 288 298 297 301 305 305 307 313
265 268 267 262 258 248 232 216 214 214 200 177 231 235 215 223 210 204 209 187 169 102 162 228 243 220 227 239 251 206 173 206 178 171 218 224 235 197 175 226 205 194 213 208 194 282 210 277 282 246 210 290 359 353 314 344 99 150 218 248 116 212 251 165 174 224 236 248 252 229 246 264 267 264 280 295 284 282 285 291 305 306 311 327 322 317 316 322
264 270 272 266 260 244 222 208 207 203 193 185 232 230 214 221 222 214 219 223 221 140 215 235 238 258 244 232 254 222 196 215 186 185 222 216 240 213 173 216 208 209 220 186 171 262 113 223 261 192 145 338 9 90 210 302 327 148 299 333 74 193 211 192 190 186 229 251 258 237 236 247 246 256 269 255 238 253 279 294 296 278 290 311 312 309 308 317
254 258 268 257 249 229 207 201 201 194 190 229 226 226 204 214 238 231 227 228 216 200 237 237 214 238 255 250 260 259 234 222 206 219 232 222 250 245 196 178 159 184 202 162 175 209 122 218 250 251 282 301 294 206 189 208 211 173 235 261 252 228 221 260 230 179 223 249 256 253 245 240 250 270 262 236 217 232 249 255 264 280 299 304 303 302 303 310
223 231 263 237 224 208 190 188 194 192 208 253 233 240 247 240 248 233 226 223 223 226 226 215 212 226 247 258 256 237 216 221 209 216 231 227 240 248 216 180 162 148 87 98 178 206 150 218 246 291 289 272 255 216 172 172 176 176 201 225 243 242 252 274 254 212 211 239 246 255 256 248 269 293 280 260 241 238 227 222 255 294 299 298 297 298 303 308
190 216 255 213 204 196 182 180 202 204 208 231 235 238 240 253 253 233 223 217 218 233 231 225 228 226 238 253 250 218 199 223 211 209 233 232 224 228 220 192 171 151 111 192 217 207 152 129 212 244 247 253 261 253 204 193 210 231 229 226 246 243 226 246 252 241 237 249 252 258 260 243 218 262 276 279 280 283 270 247 260 280 283 285 288 291 296 299
197 227 229 192 202 199 185 183 227 213 218 242 244 240 235 246 249 236 224 212 211 224 228 227 229 230 234 237 238 224 208 217 208 211 235 242 224 229 234 230 208 134 82 264 233 189 143 109 229 251 257 258 269 275 265 232 212 243 244 223 228 234 231 238 249 257 258 257 261 262 259 233 195 240 267 280 284 289 284 272 266 271 276 277 280 284 290 291
227 242 233 208 203 201 193 199 222 216 237 251 246 243 243 245 242 243 232 196 198 205 216 229 222 228 233 225 227 224 216 228 229 227 229 227 232 232 235 240 239 215 193 214 209 185 190 195 220 248 277 272 266 277 279 256 197 224 243 230 227 231 237 249 260 272 261 245 242 255 259 242 224 249 267 279 282 285 283 279 277 277 280 281 279 280 284 285
268 252 240 223 207 204 208 221 229 227 231 240 247 245 246 251 246 246 245 224 212 208 209 234 226 227 229 230 250 245 230 235 247 255 236 231 260 243 253 263 253 237 231 239 253 203 231 233 220 236 257 258 261 261 255 240 189 215 243 232 230 229 230 242 252 244 248 238 232 246 259 256 253 263 271 275 278 279 281 285 287 286 286 287 286 287 289 292
318 260 245 228 216 219 229 232 239 252 222 232 244 235 237 248 251 245 238 233 230 225 226 243 246 262 241 229 255 257 246 235 236 251 253 258 264 317 355 343 319 309 309 308 343 23 261 263 242 245 249 250 261 266 265 281 262 257 261 236 229 229 228 235 244 245 255 258 247 247 259 265 263 264 270 270 272 278 284 288 287 287 290 295 302 320 346 358
270 251 209 209 229 240 244 240 239 239 218 221 223 221 234 241 250 239 220 220 224 221 229 243 227 230 231 229 245 254 252 242 238 245 252 263 282 324 344 354 4 6 359 351 6 47 200 269 252 252 258 257 266 274 276 281 272 264 269 261 254 252 242 241 247 251 259 265 260 254 259 268 265 257 264 267 270 274 277 283 293 310 335 360 16 26 30 25
215 268 231 187 229 245 246 248 252 244 230 230 229 248 251 246 246 234 215 225 218 201 212 257 237 234 246 250 251 255 254 248 250 252 253 305 356 339 340 348 29 28 32 22 8 45 198 263 250 253 264 261 265 273 272 274 273 266 264 261 260 259 254 252 254 255 257 259 265 271 270 269 267 258 254 260 270 280 292 319 344 3 18 29 34 31 25 20
232 278 276 281 284 277 286 301 318 304 244 238 232 232 247 251 249 242 223 289 275 202 211 234 232 152 14 335 267 232 236 248 259 279 58 29 349 325 333 307 358 36 30 359 340 278 218 265 255 255 269 269 268 272 271 273 275 272 268 263 263 264 262 262 263 266 267 265 268 273 268 264 267 272 274 295 328 343 355 7 17 23 24 26 26 23 19 15
251 284 310 319 300 284 288 287 305 326 281 259 242 221 233 247 252 260 242 216 238 241 225 219 166 118 123 99 205 229 236 248 262 295 53 31 347 1 23 299 303 358 356 330 315 269 249 294 322 301 290 283 277 272 269 267 265 269 273 269 267 266 264 265 268 270 270 268 266 266 264 264 291 324 342 7 10 11 14 15 20 23 21 22 21 15 11 8
256 270 304 315 293 273 282 279 273 281 265 250 243 241 249 250 261 298 307 243 228 163 147 126 79 97 165 184 210 203 170 114 186 259 255 228 264 267 245 267 294 315 316 281 252 282 277 292 316 309 286 277 276 272 271 273 270 268 267 264 262 261 260 259 257 254 258 264 268 271 272 284 358 0 2 13 12 11 11 13 19 20 18 17 14 8 4 0
256 264 273 277 272 271 285 334 302 252 240 250 285 300 278 303 14 5 318 35 86 98 89 66 45 18 329 275 261 140 125 338 277 277 277 260 257 259 252 249 252 256 273 282 265 251 256 273 286 283 278 277 274 274 281 291 285 270 264 265 263 262 264 264 261 262 276 285 278 277 286 323 5 12 6 3 6 1 350 3 26 22 16 13 7 0 355 352